�N����,����,�~����,�C��,���x,�C��,����,���ϕ���,�ő�u�ԕ���,�ő厞����,���˗�,�I�_���x,�n�����x,�ő啗���N��,DTYPE
"17/12/30","00:10",0.0,4.8,89.8,1015.4,307.4,2.0,3.4,325.4,0.00,3.3,6.1,"00:02:10",1
"17/12/30","00:20",0.0,4.8,89.1,1015.4,304.8,2.1,4.3,311.1,0.00,3.2,5.8,"00:15:52",1
"17/12/30","00:30",0.0,4.6,89.4,1015.2,303.4,1.6,2.7,321.5,0.00,3.0,5.9,"00:28:24",1
"17/12/30","00:40",0.0,4.6,89.5,1015.4,301.9,2.0,3.7,330.3,0.00,3.1,5.8,"00:35:10",1
"17/12/30","00:50",0.0,4.9,88.2,1015.9,297.0,2.7,4.5,329.1,0.00,3.2,6.1,"00:41:46",1
"17/12/30","01:00",0.0,5.0,87.4,1015.6,284.0,2.6,5.4,299.5,0.00,3.1,5.8,"00:54:52",1
"17/12/30","01:10",0.0,4.9,87.3,1015.9,286.2,2.3,4.4,317.5,0.00,3.0,6.0,"01:01:00",1
"17/12/30","01:20",0.0,4.8,88.1,1015.9,292.7,2.6,4.3,311.7,0.00,3.0,5.8,"01:16:16",1
"17/12/30","01:30",0.0,4.8,88.0,1016.1,301.6,2.6,3.9,322.7,0.00,3.0,5.9,"01:22:54",1
"17/12/30","01:40",0.0,4.9,87.9,1016.4,305.8,2.5,3.9,296.4,0.00,3.1,6.0,"01:39:26",1
"17/12/30","01:50",0.0,4.9,87.8,1016.6,289.5,2.2,4.3,321.8,0.00,3.1,5.7,"01:47:38",1
"17/12/30","02:00",0.0,5.0,86.8,1016.6,287.2,2.7,4.9,297.6,0.00,3.0,5.9,"01:59:10",1
"17/12/30","02:10",0.0,5.0,86.0,1016.8,281.9,2.5,4.8,295.4,0.00,2.9,5.8,"02:04:56",1
"17/12/30","02:20",0.0,4.9,85.6,1016.8,283.9,2.5,5.2,311.4,0.00,2.7,5.9,"02:11:20",1
"17/12/30","02:30",0.0,4.6,84.8,1016.6,294.1,1.8,3.5,306.9,0.00,2.3,5.7,"02:21:36",1
"17/12/30","02:40",0.0,4.3,86.1,1016.6,305.4,1.6,4.4,313.4,0.00,2.2,6.0,"02:37:28",1
"17/12/30","02:50",0.0,4.2,87.1,1016.8,309.5,1.8,3.7,332.2,0.00,2.3,5.8,"02:47:34",1
"17/12/30","03:00",0.0,4.2,87.2,1016.4,302.7,1.7,2.9,332.9,0.00,2.3,5.8,"02:51:44",1
"17/12/30","03:10",0.0,4.3,85.7,1016.4,301.8,2.3,3.9,302.4,0.00,2.2,5.9,"03:06:10",1
"17/12/30","03:20",0.0,4.2,85.9,1016.1,306.9,2.1,3.5,322.6,0.00,2.1,5.7,"03:17:20",1
"17/12/30","03:30",0.0,4.3,85.6,1016.1,280.3,2.0,3.2,280.7,0.00,2.1,5.9,"03:23:36",1
"17/12/30","03:40",0.0,4.5,84.4,1016.4,269.6,2.1,3.4,292.1,0.00,2.1,5.7,"03:36:24",1
"17/12/30","03:50",0.0,4.4,83.3,1016.6,270.1,2.0,3.5,261.6,0.00,1.9,5.7,"03:45:38",1
"17/12/30","04:00",0.0,4.4,82.8,1016.8,273.6,1.7,2.7,282.6,0.00,1.8,5.7,"03:59:54",1
"17/12/30","04:10",0.0,4.3,81.9,1016.6,261.8,1.8,2.7,253.0,0.00,1.5,5.5,"04:05:42",1
"17/12/30","04:20",0.0,4.3,81.8,1016.8,294.4,1.5,2.4,316.1,0.00,1.5,5.7,"04:17:22",1
"17/12/30","04:30",0.0,4.2,82.5,1016.8,331.4,0.6,1.8,342.2,0.00,1.5,5.7,"04:28:46",1
"17/12/30","04:40",0.0,4.0,84.4,1016.1,341.5,1.1,2.2,321.6,0.00,1.7,5.7,"04:35:42",1
"17/12/30","04:50",0.0,3.8,84.9,1016.1,328.0,1.5,2.9,317.0,0.00,1.5,5.7,"04:45:22",1
"17/12/30","05:00",0.0,3.9,84.4,1015.9,323.6,1.6,2.6,294.5,0.00,1.6,5.7,"04:52:58",1
"17/12/30","05:10",0.0,3.6,87.1,1015.9,313.8,1.6,2.4,323.9,0.00,1.7,5.7,"05:07:56",1
"17/12/30","05:20",0.0,3.5,89.1,1016.1,309.9,1.5,2.0,324.0,0.00,1.9,5.5,"05:12:24",1
"17/12/30","05:30",0.0,3.5,90.2,1015.6,315.5,1.7,2.2,311.4,0.00,2.1,5.5,"05:27:48",1
"17/12/30","05:40",0.0,4.0,86.9,1016.4,304.9,2.0,3.2,310.9,0.00,2.1,5.7,"05:31:24",1
"17/12/30","05:50",0.0,4.3,83.3,1016.4,287.2,1.7,2.6,333.1,0.00,1.8,5.8,"05:44:44",1
"17/12/30","06:00",0.0,4.3,81.5,1016.6,285.2,1.3,2.4,293.7,0.00,1.5,5.7,"05:52:24",1
"17/12/30","06:10",0.0,4.5,80.1,1016.6,282.8,1.7,4.0,238.6,0.00,1.4,5.7,"06:08:16",1
"17/12/30","06:20",0.0,4.6,78.7,1016.6,277.5,1.7,2.6,299.5,0.00,1.3,5.6,"06:19:32",1
"17/12/30","06:30",0.0,4.9,75.9,1017.1,270.8,1.8,4.2,322.2,0.00,1.1,5.6,"06:27:20",1
"17/12/30","06:40",0.0,4.7,76.7,1017.3,307.6,1.6,2.1,309.2,0.00,1.0,5.6,"06:32:16",1
"17/12/30","06:50",0.0,4.3,80.7,1016.8,309.4,1.8,3.2,335.9,0.00,1.3,5.6,"06:41:44",1
"17/12/30","07:00",0.0,4.2,82.1,1016.8,318.9,1.6,2.4,321.4,0.00,1.5,5.5,"06:56:00",1
"17/12/30","07:10",0.0,4.1,82.7,1017.1,326.0,1.7,2.8,319.8,0.00,1.5,5.7,"07:05:28",1
"17/12/30","07:20",0.0,4.1,84.3,1017.1,316.1,1.8,2.9,330.3,0.00,1.7,5.7,"07:12:08",1
"17/12/30","07:30",0.0,4.7,79.5,1017.1,301.8,2.2,3.7,305.9,0.00,1.5,5.6,"07:29:06",1
"17/12/30","07:40",0.0,5.2,74.0,1017.1,289.4,2.6,4.2,280.6,0.00,1.0,5.7,"07:31:52",1
"17/12/30","07:50",0.0,5.3,73.5,1017.5,303.4,2.5,3.9,303.1,0.00,1.0,5.8,"07:40:48",1
"17/12/30","08:00",0.0,5.1,74.3,1017.1,309.3,2.5,3.5,314.1,0.00,0.9,5.7,"07:53:52",1
"17/12/30","08:10",0.0,5.1,75.3,1017.3,304.4,2.5,3.7,293.6,0.00,1.1,5.7,"08:05:20",1
"17/12/30","08:20",0.0,5.3,73.9,1017.3,301.2,2.6,5.8,329.6,0.01,1.1,5.7,"08:16:24",1
"17/12/30","08:30",0.0,5.3,73.9,1017.5,315.1,2.7,4.2,341.7,0.02,1.1,5.9,"08:27:12",1
"17/12/30","08:40",0.0,5.6,72.5,1017.8,296.3,2.7,4.2,311.8,0.04,1.1,5.8,"08:37:04",1
"17/12/30","08:50",0.0,5.7,71.8,1018.0,292.0,2.5,4.3,298.0,0.05,1.1,5.7,"08:44:08",1
"17/12/30","09:00",0.0,6.0,72.1,1018.2,304.0,2.5,4.1,304.6,0.07,1.4,6.0,"08:52:16",1
"17/12/30","09:10",0.0,6.7,71.0,1018.5,295.3,2.5,4.1,320.4,0.14,1.9,6.0,"09:04:24",1
"17/12/30","09:20",0.0,7.1,68.6,1018.5,297.2,2.8,4.9,342.2,0.22,1.8,5.9,"09:14:56",1
"17/12/30","09:30",0.0,6.8,67.3,1018.5,293.6,3.1,6.0,313.1,0.16,1.2,6.0,"09:29:04",1
"17/12/30","09:40",0.0,7.0,68.6,1018.7,280.7,2.5,4.9,326.8,0.13,1.7,6.2,"09:30:32",1
"17/12/30","09:50",0.0,6.7,67.6,1018.7,274.2,2.1,4.2,243.7,0.11,1.2,6.2,"09:40:40",1
"17/12/30","10:00",0.0,7.1,67.6,1018.7,288.3,2.5,3.9,243.1,0.15,1.6,6.3,"09:52:16",1
"17/12/30","10:10",0.0,7.2,67.2,1019.2,302.5,2.3,5.2,322.9,0.12,1.6,6.5,"10:07:34",1
"17/12/30","10:20",0.0,7.3,66.2,1018.7,295.3,2.5,4.3,238.4,0.14,1.5,6.5,"10:12:16",1
"17/12/30","10:30",0.0,7.7,67.2,1018.5,306.6,2.6,4.4,334.1,0.18,2.0,6.5,"10:21:28",1
"17/12/30","10:40",0.0,7.9,66.2,1018.5,309.2,2.3,3.5,323.3,0.16,2.0,6.7,"10:30:32",1
"17/12/30","10:50",0.0,7.7,65.0,1018.5,299.6,2.5,4.8,329.3,0.12,1.6,6.8,"10:49:20",1
"17/12/30","11:00",0.0,7.8,66.1,1018.5,305.2,2.1,3.9,332.0,0.11,1.9,6.9,"10:55:12",1
"17/12/30","11:10",0.0,8.3,66.6,1018.7,297.9,2.2,3.6,306.3,0.17,2.5,7.0,"11:08:56",1
"17/12/30","11:20",0.0,8.4,66.4,1018.5,296.2,1.7,3.4,315.6,0.17,2.5,7.1,"11:10:32",1
"17/12/30","11:30",0.0,8.2,62.4,1018.2,332.4,2.8,5.6,340.3,0.19,1.5,7.1,"11:26:48",1
"17/12/30","11:40",0.0,8.1,62.6,1018.2,340.3,3.4,7.1,333.7,0.19,1.4,7.3,"11:31:36",1
"17/12/30","11:50",0.0,8.5,61.9,1018.0,340.2,2.7,4.7,339.3,0.26,1.7,7.4,"11:40:32",1
"17/12/30","12:00",0.0,8.4,63.1,1018.0,308.6,2.8,4.4,351.9,0.19,1.8,7.2,"11:59:20",1
"17/12/30","12:10",0.0,9.2,61.7,1018.0,319.5,2.3,4.5,332.9,0.33,2.3,7.5,"12:00:08",1
"17/12/30","12:20",0.0,8.7,62.8,1017.8,322.9,3.1,7.0,329.2,0.18,2.1,7.7,"12:14:56",1
"17/12/30","12:30",0.0,8.7,63.7,1017.5,336.6,3.1,5.7,325.9,0.23,2.3,7.6,"12:24:48",1
"17/12/30","12:40",0.0,8.3,61.4,1017.3,351.9,2.6,6.7,330.1,0.21,1.4,7.5,"12:30:32",1
"17/12/30","12:50",0.0,8.4,62.2,1017.3,328.6,3.1,6.0,330.1,0.18,1.6,7.8,"12:46:32",1
"17/12/30","13:00",0.0,8.4,62.8,1017.5,337.0,3.5,6.2,349.7,0.22,1.8,8.0,"12:55:52",1
"17/12/30","13:10",0.0,8.6,64.8,1017.1,354.6,2.8,5.5,347.5,0.23,2.4,7.8,"13:01:12",1
"17/12/30","13:20",0.0,9.4,59.4,1017.1,322.2,2.0,4.0,335.9,0.40,1.9,8.1,"13:11:20",1
"17/12/30","13:30",0.0,9.2,59.8,1016.8,295.0,2.1,4.4,322.3,0.25,1.8,8.3,"13:22:16",1
"17/12/30","13:40",0.0,8.5,60.3,1017.1,353.9,2.8,6.3,347.3,0.12,1.3,8.0,"13:39:28",1
"17/12/30","13:50",0.0,8.7,55.7,1017.1,348.0,3.5,6.2,342.1,0.11,0.4,8.0,"13:40:56",1
"17/12/30","14:00",0.0,8.4,57.0,1017.3,350.5,3.2,5.8,350.0,0.09,0.4,8.4,"13:52:16",1
"17/12/30","14:10",0.0,8.5,57.5,1017.1,344.8,3.7,9.0,340.9,0.12,0.6,8.1,"14:06:00",1
"17/12/30","14:20",0.0,9.3,54.3,1017.1,334.4,2.8,6.2,340.6,0.18,0.6,8.2,"14:12:32",1
"17/12/30","14:30",0.0,8.7,56.9,1017.1,323.1,3.1,5.4,335.8,0.12,0.7,8.1,"14:24:24",1
"17/12/30","14:40",0.0,8.8,58.4,1017.3,314.4,3.0,6.4,333.8,0.14,1.1,8.2,"14:36:16",1
"17/12/30","14:50",0.0,9.0,57.5,1017.3,321.2,3.6,5.7,336.0,0.11,1.1,8.2,"14:45:12",1
"17/12/30","15:00",0.0,8.9,56.8,1017.1,335.5,3.0,7.1,341.0,0.11,0.8,8.0,"14:59:44",1
"17/12/30","15:10",0.0,8.7,57.4,1016.8,320.9,3.4,6.0,336.4,0.13,0.8,8.1,"15:05:12",1
"17/12/30","15:20",0.0,8.9,56.6,1017.1,329.8,3.1,5.7,334.2,0.17,0.8,8.2,"15:14:40",1
"17/12/30","15:30",0.0,9.1,56.1,1017.3,323.2,2.1,4.1,326.4,0.10,0.9,8.2,"15:29:20",1
"17/12/30","15:40",0.0,8.8,56.7,1017.3,300.6,2.2,3.7,335.2,0.06,0.7,7.9,"15:33:04",1
"17/12/30","15:50",0.0,8.7,56.0,1017.1,318.3,2.8,5.1,327.3,0.05,0.5,8.1,"15:49:20",1
"17/12/30","16:00",0.0,8.5,57.0,1016.8,311.4,2.2,3.6,335.0,0.02,0.5,8.0,"15:57:28",1
"17/12/30","16:10",0.0,8.3,57.8,1017.1,324.6,2.3,3.5,327.6,0.01,0.5,8.0,"16:03:28",1
"17/12/30","16:20",0.0,8.3,59.2,1017.3,315.3,2.3,4.1,329.3,0.00,0.9,8.1,"16:12:16",1
"17/12/30","16:30",0.0,8.0,62.2,1017.3,333.9,2.3,3.4,332.0,0.00,1.3,7.9,"16:23:04",1
"17/12/30","16:40",0.0,7.7,63.7,1017.1,352.9,2.1,4.2,337.7,0.00,1.3,7.9,"16:38:26",1
"17/12/30","16:50",0.0,7.5,66.0,1017.1,342.7,1.2,2.8,350.3,0.00,1.6,7.9,"16:44:50",1
"17/12/30","17:00",0.0,7.2,67.3,1016.8,339.7,1.8,3.3,357.6,0.00,1.6,7.9,"16:59:20",1
"17/12/30","17:10",0.0,6.9,68.8,1016.8,338.7,2.0,3.5,334.5,0.00,1.6,7.7,"17:02:00",1
"17/12/30","17:20",0.0,6.4,71.4,1017.1,321.5,2.3,4.4,336.0,0.00,1.6,7.7,"17:18:32",1
"17/12/30","17:30",0.0,6.2,72.2,1017.1,331.7,2.7,5.5,322.1,0.00,1.6,7.7,"17:23:12",1
"17/12/30","17:40",0.0,6.0,73.0,1017.3,331.0,2.3,3.7,322.8,0.00,1.6,7.5,"17:31:12",1
"17/12/30","17:50",0.0,5.6,74.3,1017.8,324.9,2.1,3.4,330.5,0.00,1.4,7.5,"17:44:08",1
"17/12/30","18:00",0.0,5.0,77.1,1017.3,321.3,2.1,3.1,319.2,0.00,1.4,7.5,"17:50:08",1
"17/12/30","18:10",0.0,4.8,79.5,1017.3,325.3,2.1,3.3,337.5,0.00,1.6,7.5,"18:01:20",1
"17/12/30","18:20",0.0,4.3,81.5,1017.3,298.0,1.7,2.9,320.8,0.00,1.5,7.3,"18:10:16",1
"17/12/30","18:30",0.0,4.0,84.1,1017.1,292.2,1.5,2.0,322.4,0.00,1.6,7.2,"18:29:18",1
"17/12/30","18:40",0.0,4.0,85.0,1016.6,315.1,2.2,3.6,328.7,0.00,1.8,7.1,"18:36:56",1
"17/12/30","18:50",0.0,3.7,86.2,1016.6,310.7,1.6,2.7,324.9,0.00,1.7,7.0,"18:40:16",1
"17/12/30","19:00",0.0,3.3,86.8,1016.8,301.7,1.3,1.9,314.5,0.00,1.4,6.9,"18:50:32",1
"17/12/30","19:10",0.0,3.0,88.2,1016.6,287.1,1.5,2.9,319.3,0.00,1.3,6.8,"19:06:56",1
"17/12/30","19:20",0.0,2.8,90.0,1016.6,291.1,1.8,2.4,309.9,0.00,1.4,6.6,"19:14:00",1
"17/12/30","19:30",0.0,2.9,90.8,1016.6,280.4,1.8,2.4,267.4,0.00,1.6,6.7,"19:29:44",1
"17/12/30","19:40",0.0,3.1,90.7,1016.4,306.4,2.2,3.3,323.3,0.00,1.8,6.7,"19:36:40",1
"17/12/30","19:50",0.0,2.8,90.3,1016.4,312.6,1.8,3.1,313.6,0.00,1.4,6.6,"19:40:32",1
"17/12/30","20:00",0.0,2.8,91.5,1015.9,280.2,1.6,2.0,269.9,0.00,1.6,6.6,"19:56:16",1
"17/12/30","20:10",0.0,2.7,91.6,1015.9,296.7,1.8,2.4,301.6,0.00,1.5,6.4,"20:03:20",1
"17/12/30","20:20",0.0,2.4,91.3,1016.1,303.5,2.0,2.7,313.5,0.00,1.2,6.4,"20:15:36",1
"17/12/30","20:30",0.0,2.2,93.0,1015.4,297.2,1.6,2.6,316.1,0.00,1.2,6.3,"20:27:36",1
"17/12/30","20:40",0.0,2.3,93.3,1015.9,284.2,1.8,2.7,307.4,0.00,1.4,6.3,"20:39:44",1
"17/12/30","20:50",0.0,2.6,93.3,1015.9,296.4,2.5,3.6,310.1,0.00,1.7,6.2,"20:45:20",1
"17/12/30","21:00",0.0,3.0,92.4,1015.9,325.1,3.0,4.7,339.4,0.00,1.9,6.1,"20:55:52",1
"17/12/30","21:10",0.0,2.9,91.1,1015.6,323.0,3.2,4.3,311.8,0.00,1.6,5.8,"21:03:44",1
"17/12/30","21:20",0.0,2.7,90.9,1015.6,309.3,2.8,4.0,334.1,0.00,1.4,6.1,"21:10:56",1
"17/12/30","21:30",0.0,2.6,90.6,1015.2,300.0,2.6,4.5,308.9,0.00,1.3,6.1,"21:22:24",1
"17/12/30","21:40",0.0,2.7,91.5,1015.2,313.5,2.6,3.7,329.0,0.00,1.5,6.1,"21:33:44",1
"17/12/30","21:50",0.0,2.7,91.3,1015.6,297.8,2.2,3.5,304.0,0.00,1.5,6.1,"21:49:28",1
"17/12/30","22:00",0.0,2.8,90.6,1015.2,319.0,2.5,4.2,326.4,0.00,1.5,5.7,"21:53:20",1
"17/12/30","22:10",0.0,2.3,90.9,1015.4,327.8,1.8,3.2,326.4,0.00,1.0,5.7,"22:01:12",1
"17/12/30","22:20",0.0,2.1,91.9,1015.6,313.8,1.7,2.7,311.9,0.00,1.0,5.8,"22:10:02",1
"17/12/30","22:30",0.0,1.7,92.4,1015.4,277.6,1.3,2.6,320.7,0.00,0.6,5.9,"22:21:20",1
"17/12/30","22:40",0.0,1.4,92.7,1014.9,307.0,2.0,2.5,311.9,0.00,0.4,5.9,"22:34:56",1
"17/12/30","22:50",0.0,1.1,94.1,1014.9,301.7,1.8,2.2,319.3,0.00,0.3,5.8,"22:48:08",1
"17/12/30","23:00",0.0,0.7,94.3,1014.7,309.7,1.5,2.0,314.6,0.00,-0.1,5.6,"22:56:16",1
"17/12/30","23:10",0.0,0.4,95.4,1014.9,314.3,1.3,2.1,322.6,0.00,-0.2,5.6,"23:06:40",1
"17/12/30","23:20",0.0,0.3,96.4,1014.2,316.0,1.5,2.1,330.0,0.00,-0.2,5.7,"23:16:00",1
"17/12/30","23:30",0.0,0.4,97.1,1014.0,311.0,1.6,1.9,328.3,0.00,0.0,5.5,"23:22:16",1
"17/12/30","23:40",0.0,0.9,97.6,1014.2,292.1,1.8,2.8,310.9,0.00,0.6,5.5,"23:37:36",1
"17/12/30","23:50",0.0,1.6,97.4,1014.0,297.7,2.8,5.0,312.9,0.00,1.3,5.2,"23:46:08",1
"17/12/30","24:00",0.0,1.6,96.5,1014.0,287.5,2.2,4.7,327.1,0.00,1.1,5.4,"23:50:40",1
